Temperature
30 31 31 32 32 32 32 32 32 31 31 31 31 30 30 28 28 27 26 25 24 23 22 21 21 20 19 19 19 19 19 19 19 18 18 18 18 18 18 18 18 18 18 18
30 31 32 32 31 31 31 31 32 31 31 31 31 30 30 29 28 27 26 25 25 24 23 22 21 20 20 19 19 19 19 19 19 19 19 19 18 18 18 18 18 18 18 18
31 31 31 31 31 31 31 31 31 31 31 31 31 30 30 29 28 27 26 26 25 24 23 22 21 21 20 20 19 19 19 19 19 19 19 19 19 18 18 18 18 18 18 18
31 31 30 30 31 31 31 32 31 31 31 31 31 31 31 30 29 28 27 26 26 25 24 23 22 21 20 20 20 19 20 20 20 19 19 19 19 19 19 18 18 18 18 18
30 30 30 30 31 31 31 31 31 31 31 31 31 31 31 30 29 29 28 26 26 25 24 23 22 21 21 20 20 20 20 20 19 19 19 19 19 18 18 18 18 18 18 18
31 31 31 31 31 31 30 30 30 31 31 30 30 30 30 30 29 29 28 26 26 25 24 23 22 21 21 20 20 20 20 20 19 19 19 19 19 19 18 18 18 18 18 18
30 30 30 30 30 30 30 30 30 30 30 30 30 30 30 30 29 29 28 27 25 25 24 23 22 21 21 20 20 20 20 20 20 19 19 19 19 19 18 18 18 18 18 18
29 30 30 30 30 30 30 31 30 29 30 30 29 30 30 29 28 27 27 26 25 25 24 23 23 22 21 20 20 20 20 20 19 19 19 19 19 19 18 18 18 18 18 18
30 30 30 30 30 30 30 30 32 31 30 30 30 30 29 29 28 27 26 26 25 24 24 23 22 22 21 20 20 20 20 20 20 19 19 19 19 19 18 18 18 18 18 18
30 29 30 29 30 29 30 31 30 30 28 29 29 30 30 28 28 27 26 25 25 24 23 23 22 22 21 20 20 19 19 20 20 19 19 19 19 19 19 19 18 18 18 18
30 29 29 29 29 29 29 29 29 30 30 29 29 30 30 28 28 27 26 25 24 24 23 23 22 21 21 20 20 19 19 19 19 19 19 19 19 19 19 18 18 18 18 18
28 29 29 29 29 29 29 29 29 29 28 29 29 29 29 28 28 27 26 24 24 23 23 22 21 21 20 20 20 19 19 19 19 19 19 19 19 18 18 18 18 18 18 18
28 28 27 28 28 28 28 29 29 29 29 29 29 29 28 28 27 26 25 24 23 22 22 22 21 20 20 20 19 19 19 18 18 18 19 18 18 18 18 18 18 18 18 18
26 28 28 28 29 29 28 28 28 28 29 29 29 29 28 27 27 26 24 23 22 21 21 21 20 20 19 19 19 19 19 18 18 18 18 18 18 18 18 18 18 17 17 17
27 27 27 28 28 28 28 28 28 28 28 28 29 28 28 27 26 25 24 22 22 21 20 20 20 19 19 18 18 18 18 18 18 18 18 18 18 18 18 17 17 17 17 17
26 26 26 27 27 27 27 28 27 27 28 28 28 28 28 26 25 24 23 22 21 20 20 19 19 19 18 18 18 18 18 18 18 18 18 17 17 17 17 17 17 17 17 16
25 25 25 26 27 26 26 27 27 27 27 27 27 27 26 25 24 23 22 22 21 20 20 19 19 18 18 18 18 17 17 17 17 17 17 17 17 17 16 16 16 16 16 16
24 24 25 26 25 24 27 27 27 27 27 27 26 26 25 24 22 22 21 21 20 20 19 18 18 18 17 17 17 17 17 17 17 17 17 17 16 16 16 16 16 16 16 15
24 23 25 25 25 25 26 25 25 25 25 26 26 25 24 22 22 21 20 20 19 19 18 18 17 17 17 17 17 16 16 16 16 16 16 16 16 15 15 15 15 15 15 15
23 23 24 24 24 24 26 25 24 25 24 25 24 23 22 22 23 22 19 18 18 17 17 17 17 17 17 17 16 16 16 16 16 16 15 15 15 15 15 15 15 15 15 15
22 22 23 24 24 25 24 23 23 23 24 22 22 22 21 22 22 20 18 17 17 17 16 16 16 16 16 16 16 16 16 16 16 15 15 15 15 15 15 15 14 14 14 14
23 23 22 23 23 23 22 22 23 22 20 20 20 20 20 19 18 18 17 17 16 16 16 16 16 16 15 15 15 15 15 15 15 15 15 14 14 15 15 14 14 14 14 14
22 22 23 23 23 20 20 20 20 19 19 19 19 19 18 18 17 17 17 16 16 16 16 15 15 15 15 15 15 14 15 14 14 14 14 14 14 14 14 14 14 14 14 14
21 20 20 20 21 20 19 19 18 18 18 18 18 18 18 17 17 17 16 16 15 15 15 15 15 15 15 15 14 14 14 14 14 14 14 14 14 14 14 14 14 14 14 14
20 19 20 19 20 19 19 18 17 17 17 17 17 17 17 17 17 16 16 15 15 15 15 15 14 14 14 14 14 14 14 14 14 13 13 13 14 14 14 14 14 14 14 14
19 19 19 19 19 19 18 17 17 17 17 17 17 17 16 16 16 16 15 15 15 15 15 14 14 14 14 14 14 14 14 14 13 13 13 13 13 13 13 13 13 13 13 13
Wind_Speed
7 8 8 6 6 5 5 6 5 2 1 3 3 3 3 6 6 6 6 7 7 7 7 8 9 8 8 7 7 6 6 6 5 5 4 4 5 4 4 4 5 6 5 6
9 10 7 5 5 7 8 8 6 2 1 4 4 4 3 5 6 5 6 7 7 7 8 8 9 9 9 8 8 7 7 7 7 5 4 4 3 3 4 3 4 5 6 6
11 4 4 7 7 9 9 9 7 5 4 6 6 6 5 5 5 5 5 5 7 7 8 9 10 10 9 9 9 7 8 8 7 6 5 4 3 3 3 4 4 5 6 6
9 6 6 9 9 9 9 6 7 7 8 5 6 7 4 5 6 6 6 6 6 8 8 9 10 10 10 10 9 8 8 8 8 7 6 6 5 4 3 3 3 4 5 6
8 7 9 10 9 9 6 4 7 8 9 9 8 8 4 4 5 5 6 7 7 8 9 9 9 10 9 9 9 8 8 8 8 7 6 6 5 4 3 3 3 3 4 5
7 6 6 7 6 6 5 6 6 9 10 11 7 8 5 2 3 3 4 6 7 7 8 8 9 9 8 8 8 8 8 7 7 7 6 6 5 4 4 4 3 4 3 4
9 9 7 6 7 8 8 9 7 8 9 8 4 7 4 1 1 2 3 4 5 5 7 8 9 9 9 9 8 8 8 7 7 7 7 7 6 6 6 6 5 5 4 4
10 10 9 7 8 7 10 11 9 8 8 5 5 6 2 1 1 0 1 3 4 5 5 6 7 8 9 9 8 8 8 7 7 7 7 6 6 6 5 6 5 5 4 4
7 7 6 6 6 8 9 10 10 10 10 9 5 4 3 2 2 2 2 4 4 4 5 5 6 7 8 8 8 8 8 7 7 7 6 6 6 6 5 5 5 5 4 4
6 7 7 6 6 6 8 8 7 9 8 10 8 8 4 3 3 3 3 3 3 4 5 5 5 6 7 7 8 8 7 7 7 6 5 5 5 5 5 5 4 4 4 4
9 8 7 8 8 8 7 8 8 9 9 9 8 3 1 3 2 3 3 3 3 4 4 4 4 4 5 6 7 7 6 6 6 5 5 5 4 5 5 5 4 4 4 3
8 8 9 8 4 4 8 9 10 10 9 10 11 4 4 3 2 2 3 3 3 2 3 3 4 4 4 5 6 6 5 6 5 5 5 5 4 4 4 5 5 5 5 5
6 7 9 9 9 8 8 9 10 11 10 11 12 5 6 4 3 3 3 3 3 3 3 4 4 4 4 4 4 4 4 4 5 5 5 5 5 5 5 5 5 5 5 6
5 9 11 11 6 6 8 9 10 11 11 11 12 8 4 3 3 2 2 3 3 3 3 3 4 3 3 3 3 3 3 3 4 4 4 4 5 5 5 5 5 5 5 6
6 10 11 11 7 8 9 10 11 12 12 13 10 9 6 3 3 3 3 3 3 3 3 3 3 3 3 2 2 2 2 2 3 3 4 4 5 5 5 5 5 5 5 6
5 8 9 11 10 10 12 12 12 13 12 12 12 10 3 3 3 4 4 4 3 2 2 2 2 2 2 2 2 2 2 2 2 3 3 3 4 4 5 5 5 5 5 5
7 7 10 12 10 11 14 14 14 12 11 12 12 8 3 4 4 4 4 4 4 3 2 1 1 1 1 1 2 1 2 2 2 2 2 3 4 4 5 5 4 5 5 5
7 9 8 10 9 14 8 3 7 10 11 10 8 5 5 4 3 3 3 3 3 2 1 1 1 1 1 1 2 2 2 2 2 2 2 2 3 4 4 4 5 5 4 4
8 8 9 10 14 14 8 5 5 8 11 9 8 6 5 4 3 4 2 1 1 0 0 1 1 1 0 1 1 1 1 2 1 2 2 2 3 4 4 5 5 4 4 4
7 9 10 11 13 14 5 2 2 6 10 4 5 5 6 6 6 3 2 1 1 1 1 1 1 1 1 0 1 1 1 1 1 2 2 2 3 4 4 4 4 4 4 5
9 9 13 14 14 10 1 3 3 8 3 1 3 4 5 5 2 2 2 1 1 1 1 1 1 1 1 0 1 1 1 1 2 2 2 2 2 3 3 3 3 4 4 4
9 9 11 11 13 9 3 2 4 3 3 1 2 2 2 1 2 3 3 2 2 1 1 1 1 1 1 1 1 0 1 2 2 2 2 2 3 3 3 3 3 4 4 4
6 5 5 6 4 2 1 2 2 3 2 2 2 2 2 2 2 2 2 2 1 1 1 1 1 1 1 1 1 1 2 2 2 2 2 2 3 3 3 3 3 4 4 4
4 2 4 5 4 2 3 2 3 2 2 2 2 2 3 2 2 2 2 1 1 0 1 1 0 0 1 1 1 2 2 2 2 3 3 2 3 2 2 3 3 3 3 4
4 4 6 7 5 4 3 2 2 2 2 1 2 2 2 2 2 2 2 2 1 1 1 1 1 1 2 2 2 1 1 1 2 3 3 3 2 2 2 2 2 3 2 2
7 7 8 6 4 4 4 3 3 3 2 2 2 2 1 1 1 1 1 1 1 2 2 2 2 2 2 2 2 2 1 1 2 3 3 3 2 2 2 1 1 2 1 1
Wind_Direction
194 216 220 226 245 266 266 267 270 274 244 262 260 257 207 181 189 184 181 181 183 186 179 179 180 179 174 173 177 180 184 184 192 190 192 187 187 189 186 190 188 193 197 195
203 224 232 243 240 238 247 257 260 242 227 265 264 258 228 191 198 200 197 193 193 184 181 183 185 184 184 182 186 187 190 191 199 197 205 204 198 198 191 196 188 199 198 197
220 217 208 224 229 239 245 255 264 266 255 235 258 240 210 193 201 206 211 209 203 193 187 185 185 188 188 189 193 196 199 197 199 197 198 191 186 201 197 199 199 206 206 204
230 221 215 226 232 242 246 251 263 254 252 252 252 269 213 200 207 213 215 215 211 198 191 187 185 189 192 193 191 195 199 197 195 196 201 197 198 203 204 207 203 200 205 210
212 214 221 233 237 244 258 262 252 250 254 263 247 267 247 195 232 228 218 219 214 201 194 188 188 188 190 192 190 188 190 191 190 195 198 205 215 213 208 211 202 212 204 208
226 212 231 242 238 229 219 226 229 238 249 252 253 262 266 229 263 260 219 212 211 204 194 186 184 183 186 187 186 184 183 186 187 193 198 202 214 221 227 226 227 222 216 212
217 215 211 220 217 199 218 234 236 235 235 247 222 253 274 301 287 279 230 206 201 199 193 185 181 181 182 184 185 182 180 184 189 195 203 205 212 219 225 232 230 238 238 227
216 211 197 208 227 223 224 240 252 264 264 254 205 246 244 90 119 320 172 167 173 179 182 182 182 180 180 182 184 183 181 183 187 195 203 208 214 222 228 232 240 238 245 245
223 212 176 204 226 237 223 237 258 263 267 270 246 228 206 166 153 147 141 150 162 168 166 164 169 173 175 181 182 183 180 181 185 192 194 198 209 223 229 227 232 240 246 245
236 230 197 187 203 218 249 243 240 247 253 259 248 239 236 193 191 167 154 149 159 164 158 156 158 168 170 173 176 178 179 183 186 187 195 197 204 213 220 229 234 244 251 255
236 231 205 195 216 215 207 223 235 246 254 264 266 246 119 173 182 174 166 153 149 159 159 153 156 159 166 166 168 172 178 181 186 191 195 205 207 212 219 225 234 239 248 251
222 236 231 214 201 248 232 233 230 241 243 253 271 265 111 126 133 141 135 122 116 132 140 141 147 149 153 162 167 169 179 186 193 193 195 200 209 212 219 224 232 237 241 243
203 228 226 213 201 203 222 227 235 247 250 250 258 249 132 133 138 128 125 118 122 127 127 130 134 140 143 150 161 166 182 188 190 191 198 201 209 214 222 232 236 237 238 242
231 235 243 251 253 212 218 220 226 239 247 252 256 264 206 183 184 162 140 135 132 128 130 130 133 133 132 135 150 167 176 176 187 194 202 209 219 220 223 231 238 238 238 240
229 236 240 257 261 243 238 232 228 239 257 266 268 266 257 226 221 199 169 153 143 132 135 138 140 134 138 142 156 173 175 171 183 197 208 215 225 226 226 230 234 238 239 240
228 243 240 242 240 241 245 241 238 242 250 256 264 265 266 227 212 200 194 182 173 164 150 144 151 154 158 166 180 179 185 182 197 210 215 218 224 227 230 233 236 237 239 245
217 227 239 244 235 241 242 238 238 242 245 250 257 262 216 214 210 213 210 204 201 192 181 179 179 177 179 190 190 183 189 202 215 226 229 226 229 231 235 239 236 238 239 240
227 229 236 245 232 241 248 232 242 248 248 250 258 246 217 204 203 221 217 211 202 197 200 194 198 197 196 188 182 188 185 191 220 241 243 246 245 243 241 240 239 239 239 241
224 225 237 239 240 246 237 219 231 246 253 245 241 228 207 174 185 207 188 179 191 210 172 177 198 192 160 179 187 187 198 201 226 260 272 265 256 249 244 243 244 243 244 248
201 220 235 238 247 249 248 160 232 253 247 217 215 204 191 193 223 204 135 121 56 36 71 89 117 94 91 132 190 197 224 230 254 271 279 282 270 255 249 248 247 246 245 251
202 214 230 239 245 250 63 116 189 234 271 112 206 201 203 224 291 106 131 113 99 80 89 99 93 72 43 16 171 202 262 265 276 286 282 275 275 266 260 257 255 256 254 259
230 227 227 236 242 241 88 177 228 322 0 265 214 205 202 165 107 135 142 138 136 129 138 123 96 61 36 26 167 233 304 311 301 281 271 268 267 265 254 251 258 259 259 254
237 262 255 246 257 28 258 277 312 307 287 257 218 189 183 178 171 160 154 155 149 153 154 143 123 82 55 357 253 264 311 319 311 297 283 281 272 265 258 245 241 245 249 260
218 249 250 253 243 272 265 289 306 294 275 263 227 201 197 196 187 179 175 173 183 179 175 158 160 259 291 296 272 278 296 312 314 303 296 286 273 265 268 272 260 259 261 267
255 226 237 245 251 265 244 282 302 297 277 234 207 206 209 203 197 190 186 192 199 223 202 215 228 245 265 284 272 267 275 296 302 293 295 294 289 292 283 282 300 283 287 299
241 243 246 256 261 264 266 276 280 270 263 228 214 216 221 217 204 208 216 221 234 255 236 238 245 253 259 262 263 259 252 231 260 272 283 288 288 299 299 302 307 55 354 82
Height
1498 1496 1493 1490 1490 1490 1491 1492 1494 1493 1492 1494 1495 1495 1496 1502 1504 1506 1509 1512 1514 1516 1518 1520 1521 1522 1524 1524 1525 1526 1528 1529 1529 1531 1532 1533 1534 1535 1536 1537 1538 1540 1541 1543
1496 1493 1489 1490 1491 1492 1492 1494 1492 1491 1492 1494 1493 1494 1493 1498 1501 1504 1506 1509 1511 1513 1516 1517 1519 1521 1522 1523 1524 1525 1526 1527 1528 1529 1531 1532 1533 1534 1535 1537 1537 1538 1540 1541
1491 1489 1490 1492 1493 1494 1492 1492 1491 1493 1492 1491 1493 1494 1492 1495 1499 1502 1504 1506 1508 1510 1512 1514 1516 1518 1520 1521 1522 1523 1524 1525 1527 1528 1530 1531 1532 1533 1535 1535 1536 1537 1538 1539
1488 1488 1491 1492 1491 1491 1492 1487 1490 1492 1494 1491 1493 1498 1490 1490 1495 1498 1501 1503 1505 1508 1510 1512 1514 1516 1518 1519 1521 1521 1522 1523 1525 1527 1529 1530 1531 1533 1534 1534 1535 1535 1536 1537
1488 1488 1490 1491 1489 1489 1489 1488 1489 1489 1490 1492 1490 1495 1489 1488 1491 1492 1496 1500 1502 1505 1507 1509 1511 1513 1515 1517 1519 1519 1519 1521 1524 1526 1527 1528 1530 1532 1533 1533 1534 1534 1535 1536
1484 1487 1487 1487 1487 1488 1489 1490 1489 1487 1486 1500 1492 1496 1493 1486 1489 1490 1493 1497 1500 1502 1504 1507 1509 1511 1513 1515 1517 1518 1518 1519 1522 1524 1526 1527 1528 1530 1532 1532 1533 1534 1535 1535
1488 1485 1486 1487 1487 1488 1488 1492 1499 1501 1500 1497 1488 1494 1493 1485 1487 1489 1491 1494 1497 1500 1502 1504 1507 1508 1510 1512 1514 1516 1517 1518 1520 1522 1524 1525 1526 1528 1530 1531 1532 1533 1534 1534
1490 1488 1483 1484 1485 1486 1486 1486 1499 1508 1501 1491 1490 1492 1487 1485 1488 1490 1491 1493 1496 1498 1500 1502 1504 1506 1507 1510 1511 1513 1514 1516 1518 1519 1521 1523 1524 1526 1528 1529 1530 1530 1531 1532
1482 1485 1480 1482 1483 1483 1485 1484 1478 1486 1490 1494 1486 1485 1484 1484 1487 1490 1491 1493 1495 1497 1499 1500 1502 1504 1505 1507 1509 1511 1512 1514 1516 1517 1519 1520 1522 1523 1525 1526 1527 1528 1528 1529
1477 1486 1479 1482 1483 1483 1481 1479 1483 1487 1502 1503 1491 1488 1484 1485 1486 1488 1490 1492 1494 1496 1498 1499 1501 1502 1504 1506 1507 1509 1510 1512 1514 1515 1517 1518 1519 1520 1521 1522 1523 1524 1525 1525
1477 1484 1481 1481 1483 1481 1485 1485 1483 1483 1484 1496 1497 1488 1475 1481 1483 1486 1489 1492 1494 1495 1496 1498 1499 1501 1503 1505 1506 1507 1509 1510 1512 1513 1514 1516 1516 1517 1518 1519 1520 1520 1521 1521
1478 1478 1480 1478 1478 1479 1479 1479 1482 1490 1492 1488 1489 1486 1475 1479 1482 1486 1488 1492 1494 1495 1496 1497 1499 1500 1502 1503 1505 1506 1507 1508 1510 1511 1512 1513 1514 1515 1515 1516 1516 1517 1517 1518
1479 1481 1489 1486 1484 1481 1479 1478 1478 1478 1481 1484 1488 1485 1476 1480 1483 1486 1489 1492 1494 1495 1496 1497 1499 1500 1501 1502 1504 1505 1506 1507 1508 1508 1509 1510 1511 1512 1512 1512 1513 1513 1514 1514
1481 1477 1482 1484 1477 1474 1479 1479 1479 1480 1480 1481 1480 1478 1476 1479 1483 1486 1490 1492 1494 1495 1495 1497 1498 1499 1500 1501 1502 1503 1504 1505 1506 1506 1507 1507 1508 1508 1509 1509 1510 1510 1510 1510
1479 1478 1476 1473 1470 1472 1475 1476 1477 1479 1477 1479 1475 1475 1474 1478 1483 1487 1490 1492 1493 1494 1495 1496 1497 1498 1499 1499 1500 1501 1502 1503 1503 1504 1504 1505 1505 1506 1506 1506 1506 1507 1507 1507
1478 1478 1477 1477 1473 1473 1475 1474 1475 1475 1475 1476 1476 1476 1475 1480 1483 1486 1489 1491 1492 1493 1494 1495 1496 1497 1497 1498 1498 1499 1499 1500 1501 1501 1502 1502 1502 1503 1503 1503 1503 1503 1503 1503
1476 1479 1481 1477 1472 1475 1479 1471 1471 1472 1470 1472 1474 1473 1476 1480 1483 1486 1488 1490 1491 1492 1493 1494 1495 1495 1496 1496 1496 1496 1497 1498 1498 1499 1499 1499 1499 1499 1499 1500 1500 1500 1500 1500
1479 1479 1477 1475 1480 1489 1468 1465 1467 1469 1469 1469 1471 1474 1477 1481 1484 1486 1488 1489 1490 1491 1492 1493 1493 1493 1494 1494 1495 1495 1495 1495 1496 1496 1496 1496 1496 1496 1496 1496 1496 1496 1497 1497
1476 1478 1476 1475 1477 1472 1468 1467 1469 1471 1470 1469 1471 1474 1478 1481 1484 1485 1487 1488 1490 1490 1491 1491 1492 1492 1492 1492 1493 1493 1493 1493 1493 1493 1493 1493 1493 1493 1493 1493 1493 1493 1493 1493
1476 1477 1476 1474 1479 1477 1465 1466 1470 1472 1472 1469 1472 1475 1478 1480 1479 1481 1485 1487 1488 1489 1489 1489 1490 1490 1490 1490 1491 1491 1491 1491 1491 1491 1490 1490 1490 1490 1490 1490 1489 1490 1490 1490
1473 1475 1474 1473 1473 1464 1466 1469 1472 1477 1471 1472 1474 1476 1477 1478 1479 1483 1484 1486 1486 1487 1487 1488 1488 1488 1488 1488 1489 1489 1489 1489 1489 1489 1488 1488 1487 1487 1487 1487 1487 1487 1487 1486
1468 1468 1472 1471 1474 1470 1470 1471 1472 1473 1474 1474 1475 1476 1478 1480 1481 1482 1483 1484 1485 1485 1486 1486 1486 1486 1486 1486 1487 1487 1487 1487 1487 1486 1486 1485 1485 1485 1485 1484 1484 1484 1484 1483
1467 1467 1464 1467 1469 1472 1473 1473 1475 1475 1475 1475 1476 1477 1478 1479 1480 1481 1482 1483 1484 1484 1484 1485 1485 1484 1484 1485 1485 1485 1484 1484 1484 1484 1483 1483 1482 1482 1482 1481 1481 1481 1481 1480
1469 1472 1470 1470 1469 1472 1473 1474 1475 1475 1475 1475 1476 1477 1478 1479 1479 1480 1481 1482 1482 1482 1483 1483 1483 1483 1483 1483 1483 1482 1483 1482 1482 1482 1482 1481 1480 1479 1479 1479 1479 1478 1478 1477
1468 1471 1470 1471 1471 1472 1472 1474 1474 1475 1475 1475 1476 1477 1477 1478 1478 1479 1480 1480 1481 1481 1481 1481 1481 1481 1481 1481 1481 1481 1480 1480 1481 1481 1480 1479 1478 1478 1477 1476 1476 1475 1474 1474
1469 1470 1469 1468 1470 1471 1472 1473 1474 1474 1474 1474 1475 1476 1477 1477 1478 1478 1478 1479 1479 1479 1479 1479 1479 1479 1479 1479 1479 1479 1478 1478 1478 1478 1478 1478 1477 1476 1475 1474 1473 1472 1472 1471